GW3750 Weather Reports


time (UTC)temp
C
wind
direction
speed
KPH
gust
KPH
rain 1hr
cm
rain 24hr
cm
rain mn
cm
humidity
%
barometer
mb
20260504190507 25 150 6.4 14.5 0.00 0.00 0.00 41 1016.4
20260504190019 25 68 3.2 9.7 0.00 0.00 0.00 38 1016.4
20260504185506 25 214 6.4 11.3 0.00 0.00 0.00 38 1016.6
20260504185011 25 171 6.4 17.7 0.00 0.00 0.00 40 1016.7
20260504184532 25 34 8.0 17.7 0.00 0.00 0.00 40 1016.7
20260504184011 25 82 4.8 12.9 0.00 0.00 0.00 40 1016.7
20260504183512 25 229 6.4 16.1 0.00 0.00 0.00 43 1016.6
20260504183026 25 48 3.2 16.1 0.00 0.00 0.00 40 1016.7
20260504182511 25 191 3.2 16.1 0.00 0.00 0.00 40 1016.9
20260504182012 24 254 8.0 16.1 0.00 0.00 0.00 40 1017.0
20260504181529 24 214 4.8 12.9 0.00 0.00 0.00 43 1017.1
20260504181012 24 231 6.4 12.9 0.00 0.00 0.00 43 1017.1
20260504180513 23 92 1.6 14.5 0.00 0.00 0.00 40 1017.2
20260504180030 23 159 6.4 14.5 0.00 0.00 0.00 40 1017.3
20260504175507 24 185 6.4 12.9 0.00 0.00 0.00 42 1017.2
20260504175006 24 188 3.2 16.1 0.00 0.00 0.00 42 1017.2
20260504174519 24 141 8.0 16.1 0.00 0.00 0.00 41 1017.3
20260504174003 23 301 3.2 9.7 0.00 0.00 0.00 42 1017.6
20260504173502 23 319 3.2 14.5 0.00 0.00 0.00 41 1017.6
20260504173007 23 233 6.4 14.5 0.00 0.00 0.00 42 1017.6
20260504172503 23 82 3.2 12.9 0.00 0.00 0.00 41 1017.7
20260504172003 23 217 4.8 12.9 0.00 0.00 0.00 42 1017.7
20260504171507 23 165 6.4 11.3 0.00 0.00 0.00 45 1017.8
20260504171004 23 162 4.8 11.3 0.00 0.00 0.00 44 1017.8
20260504170506 23 267 3.2 9.7 0.00 0.00 0.00 42 1017.9
20260504151004 21 260 4.8 12.9 0.00 0.00 0.00 53 1018.3
20260504150506 21 288 6.4 12.9 0.00 0.00 0.00 55 1018.4
20260504141003 18 269 1.6 8.0 0.00 0.00 0.00 71 1018.7
20260504140505 18 262 3.2 8.0 0.00 0.00 0.00 71 1018.6
20260504130511 16 245 0.0 1.6 0.00 0.00 0.00 80 1018.4
20260504110507 8 266 0.0 0.0 0.00 0.00 0.00 95 1018.0
20260504100507 8 266 0.0 0.0 0.00 0.00 0.00 94 1017.7
20260504082003 9 265 0.0 0.0 0.00 0.00 0.00 94 1018.2
20260504081504 9 265 0.0 0.0 0.00 0.00 0.00 94 1018.3
20260504081003 9 265 0.0 0.0 0.00 0.00 0.00 94 1018.3
20260504080503 9 265 0.0 0.0 0.00 0.00 0.00 93 1018.3
20260504050504 11 265 0.0 1.6 0.00 0.00 0.00 91 1019.7
20260504050014 11 265 0.0 1.6 0.00 0.00 0.00 91 1019.6
20260504045505 11 265 0.0 0.0 0.00 0.00 0.00 90 1019.6
20260504045005 11 265 0.0 3.2 0.00 0.00 0.00 89 1019.5
20260504044504 11 265 0.0 4.8 0.00 0.00 0.00 90 1019.7
20260504044003 11 268 1.6 4.8 0.00 0.00 0.00 90 1019.7
20260504043504 11 252 0.0 1.6 0.00 0.00 0.00 90 1019.6
20260504043005 12 252 0.0 0.0 0.00 0.00 0.00 90 1019.7
20260504042504 12 252 0.0 0.0 0.00 0.00 0.00 90 1019.7
20260504042007 12 252 0.0 1.6 0.00 0.00 0.00 89 1019.7
20260504041507 12 252 0.0 1.6 0.00 0.00 0.00 89 1019.8
20260504041004 12 252 0.0 3.2 0.00 0.00 0.00 89 1019.9
20260504040505 12 252 0.0 3.2 0.00 0.00 0.00 89 1019.9
20260504040004 12 250 0.0 0.0 0.00 0.00 0.00 88 1019.9
20260504035504 12 250 0.0 3.2 0.00 0.00 0.00 88 1019.8
20260504035004 12 250 0.0 3.2 0.00 0.00 0.00 87 1019.8
20260504034507 12 249 0.0 3.2 0.00 0.00 0.00 87 1019.7
20260504034004 12 262 0.0 1.6 0.00 0.00 0.00 87 1019.7
20260504033504 12 262 0.0 1.6 0.00 0.00 0.00 87 1019.8
20260504033007 12 262 0.0 0.0 0.00 0.00 0.00 86 1019.8
20260504032505 13 262 0.0 1.6 0.00 0.00 0.00 86 1019.8
20260504032008 13 262 0.0 1.6 0.00 0.00 0.00 86 1019.8
20260504031510 13 262 0.0 0.0 0.00 0.00 0.00 85 1019.8
20260504031004 13 262 0.0 1.6 0.00 0.00 0.00 85 1019.8
20260504030507 13 262 0.0 3.2 0.00 0.00 0.00 84 1019.7
20260504030014 13 262 1.6 3.2 0.00 0.00 0.00 83 1019.7
20260504025504 13 327 0.0 0.0 0.00 0.00 0.00 83 1019.6
20260504025003 13 327 0.0 0.0 0.00 0.00 0.00 83 1019.5
20260504024510 13 327 0.0 0.0 0.00 0.00 0.00 82 1019.5
20260504024004 13 327 0.0 0.0 0.00 0.00 0.00 83 1019.4
20260504023504 13 278 0.0 0.0 0.00 0.00 0.00 83 1019.4
20260504023008 13 278 0.0 0.0 0.00 0.00 0.00 82 1019.4
20260504022506 13 294 0.0 0.0 0.00 0.00 0.00 81 1019.2
20260504022005 13 294 0.0 0.0 0.00 0.00 0.00 81 1019.2
20260504021508 13 294 0.0 0.0 0.00 0.00 0.00 80 1019.2
20260504021004 14 294 0.0 0.0 0.00 0.00 0.00 79 1019.1
20260504020505 15 294 0.0 0.0 0.00 0.00 0.00 79 1019.2
20260504020011 15 320 0.0 0.0 0.00 0.00 0.00 77 1019.1
20260504015504 15 320 0.0 0.0 0.00 0.00 0.00 75 1019.0
20260504015006 15 319 0.0 0.0 0.00 0.00 0.00 75 1019.0
20260504014518 15 320 0.0 0.0 0.00 0.00 0.00 75 1018.9
20260504014004 15 320 0.0 0.0 0.00 0.00 0.00 72 1018.8
20260504013504 16 320 0.0 0.0 0.00 0.00 0.00 72 1018.7
20260504013028 16 320 0.0 0.0 0.00 0.00 0.00 71 1018.5
20260504012504 16 320 0.0 0.0 0.00 0.00 0.00 70 1018.4
20260504012005 16 320 0.0 0.0 0.00 0.00 0.00 67 1018.4
20260504011510 16 320 0.0 0.0 0.00 0.00 0.00 67 1018.5
20260504011006 16 320 0.0 0.0 0.00 0.00 0.00 66 1018.5
20260504010505 17 320 0.0 0.0 0.00 0.00 0.00 64 1018.6
20260504010012 17 320 0.0 0.0 0.00 0.00 0.00 65 1018.7
20260504005510 17 320 0.0 0.0 0.00 0.00 0.00 64 1018.6
20260504005009 18 320 0.0 0.0 0.00 0.00 0.00 63 1018.6
20260504004512 18 320 0.0 0.0 0.00 0.00 0.00 62 1018.5
20260504004006 18 320 0.0 0.0 0.00 0.00 0.00 61 1018.4
20260504003509 19 320 0.0 0.0 0.00 0.00 0.00 60 1018.4
20260504003016 19 320 0.0 0.0 0.00 0.00 0.00 59 1018.4
20260504002508 20 320 0.0 0.0 0.00 0.00 0.00 57 1018.4
20260504002008 21 320 0.0 0.0 0.00 0.00 0.00 55 1018.4
20260504001513 22 320 0.0 0.0 0.00 0.00 0.00 50 1018.4
20260504001005 22 320 0.0 0.0 0.00 0.00 0.00 48 1018.4
20260504000506 23 319 0.0 0.0 0.00 0.00 0.00 47 1018.4
20260504000018 23 320 0.0 0.0 0.00 0.00 0.00 42 1018.3
20260503235507 24 320 0.0 0.0 0.00 0.00 0.00 41 1018.3
20260503235007 24 320 0.0 0.0 0.00 0.00 0.00 39 1018.3
20260503234517 24 320 0.0 0.0 0.00 0.00 0.00 41 1018.3
20260503234007 24 320 0.0 4.8 0.00 0.00 0.00 39 1018.3
20260503233507 24 320 0.0 4.8 0.00 0.00 0.00 36 1018.3
20260503233021 25 254 0.0 1.6 0.00 0.00 0.00 35 1018.4
20260503232509 24 254 0.0 4.8 0.00 0.00 0.00 32 1018.4
20260503232010 24 240 0.0 6.4 0.00 0.00 0.00 35 1018.4
20260503231520 25 255 1.6 6.4 0.00 0.00 0.00 34 1018.4
20260503230507 24 295 0.0 4.8 0.00 0.00 0.00 32 1018.5
20260503230006 24 274 1.6 3.2 0.00 0.00 0.00 32 1018.6
20260503225503 24 242 1.6 9.7 0.00 0.00 0.00 34 1018.5
20260503225002 24 212 1.6 9.7 0.00 0.00 0.00 33 1018.6
20260503224507 25 252 1.6 6.4 0.00 0.00 0.00 32 1018.6
20260503224006 24 323 0.0 6.4 0.00 0.00 0.00 32 1018.5
20260503223502 23 262 0.0 6.4 0.00 0.00 0.00 34 1018.6
20260503223011 24 318 3.2 6.4 0.00 0.00 0.00 35 1018.6
20260503222506 23 227 0.0 8.0 0.00 0.00 0.00 36 1018.7
20260503222007 23 258 4.8 8.0 0.00 0.00 0.00 36 1018.7
20260503221515 23 290 4.8 9.7 0.00 0.00 0.00 35 1018.7
20260503221011 23 109 1.6 9.7 0.00 0.00 0.00 36 1018.8
20260503220511 24 234 1.6 11.3 0.00 0.00 0.00 35 1018.8
20260503220020 23 249 1.6 11.3 0.00 0.00 0.00 37 1018.9
20260503215503 23 270 6.4 12.9 0.00 0.00 0.00 37 1018.9
20260503215003 23 236 6.4 12.9 0.00 0.00 0.00 35 1019.0
20260503214506 23 338 1.6 8.0 0.00 0.00 0.00 35 1019.1
20260503214006 23 359 4.8 11.3 0.00 0.00 0.00 36 1019.1
20260503213505 23 18 4.8 11.3 0.00 0.00 0.00 35 1019.1
20260503213009 23 356 6.4 11.3 0.00 0.00 0.00 37 1019.2
20260503212504 23 83 0.0 4.8 0.00 0.00 0.00 36 1019.2
20260503212009 23 79 0.0 9.7 0.00 0.00 0.00 38 1019.3
20260503211514 23 260 3.2 9.7 0.00 0.00 0.00 36 1019.3
20260503211007 23 323 4.8 16.1 0.00 0.00 0.00 38 1019.4
20260503210507 23 281 9.7 16.1 0.00 0.00 0.00 36 1019.5
20260503210019 23 310 6.4 16.1 0.00 0.00 0.00 36 1019.6
20260503205509 23 240 3.2 12.9 0.00 0.00 0.00 35 1019.5
20260503205011 23 238 1.6 11.3 0.00 0.00 0.00 37 1019.6
20260503204522 23 297 0.0 11.3 0.00 0.00 0.00 36 1019.8
20260503204004 23 350 4.8 11.3 0.00 0.00 0.00 36 1019.9
20260503203507 23 304 4.8 8.0 0.00 0.00 0.00 36 1020.0
20260503203013 23 238 3.2 8.0 0.00 0.00 0.00 38 1020.0
20260503202504 23 248 1.6 19.3 0.00 0.00 0.00 35 1020.1
20260503202006 23 227 4.8 19.3 0.00 0.00 0.00 36 1020.2
20260503201511 23 164 4.8 11.3 0.00 0.00 0.00 36 1020.3
20260503201009 22 99 3.2 11.3 0.00 0.00 0.00 36 1020.4
20260503200508 23 273 3.2 14.5 0.00 0.00 0.00 34 1020.5
20260503200018 23 238 3.2 16.1 0.00 0.00 0.00 39 1020.6
20260503195509 23 193 8.0 16.1 0.00 0.00 0.00 38 1020.6
20260503195012 23 300 4.8 14.5 0.00 0.00 0.00 36 1020.6
20260503194535 23 8 6.4 12.9 0.00 0.00 0.00 37 1020.6
20260503194008 23 282 3.2 12.9 0.00 0.00 0.00 37 1020.7
20260503193510 23 242 6.4 12.9 0.00 0.00 0.00 36 1020.8
20260503193024 23 357 4.8 12.9 0.00 0.00 0.00 36 1020.8
20260503192510 22 290 3.2 9.7 0.00 0.00 0.00 38 1020.9
20260503192003 22 16 3.2 9.7 0.00 0.00 0.00 38 1021.0
20260503191508 22 60 4.8 11.3 0.00 0.00 0.00 37 1021.1
20260503191003 22 6 4.8 14.5 0.00 0.00 0.00 35 1021.1